Satellite: FENGYUN 1D
Catalog number: 27431
Epoch time:      103046.18649677
Element set:     215 
Inclination:       98.7703 deg
RA of node:        95.2598 deg
Eccentricity:    0.0015929
Arg of perigee:   132.1832 deg
Mean anomaly:     228.0694 deg
Mean motion:   14.09177797 rev/day
Decay rate:    1.9999E-008 rev/day^2
Epoch rev:            3889
Checksum:              369

Satellite: NOAA 17
Catalog number: 27453
Epoch time:      103046.96455182
Element set:     305 
Inclination:       98.7593 deg
RA of node:       118.1909 deg
Eccentricity:    0.0012066
Arg of perigee:     8.3814 deg
Mean anomaly:     351.7563 deg
Mean motion:   14.23292052 rev/day
Decay rate:    2.8500E-006 rev/day^2
Epoch rev:            3359
Checksum:              308

Satellite: HOT BIRD 6
Catalog number: 27499
Epoch time:      103044.99704955
Element set:     67 
Inclination:        0.0348 deg
RA of node:       333.6449 deg
Eccentricity:    0.0009014
Arg of perigee:    37.5008 deg
Mean anomaly:     144.3150 deg
Mean motion:    1.00272840 rev/day
Decay rate:    9.0999E-007 rev/day^2
Epoch rev:             178
Checksum:              410

Satellite: RUBIN 2
Catalog number: 27605
Epoch time:      103046.86135370
Element set:     59 
Inclination:       64.5514 deg
RA of node:       205.4565 deg
Eccentricity:    0.0035089
Arg of perigee:   114.0741 deg
Mean anomaly:     246.4039 deg
Mean motion:   14.71365789 rev/day
Decay rate:    1.4209E-005 rev/day^2
Epoch rev:             841
Checksum:              298


Read previous mail | Read next mail


 11.09.2026 10:23:12lGo back Go up